Flag for Congo Dem.Rep. Weather past 2 weeks in Kinshasa, Congo Dem.Rep.

Now
75 °F

Passing clouds.


Feels Like: 75 °F
Forecast: 74 / 89 °F
Wind: 3 mph from West

Location: Brazzaville / Maya-Maya

Current Time: Mar 4, 2015 at 5:31:28 AM

Latest Report: Mar 4, 2015 at 4:00 AM


Visibility: N/A

Pressure: 29.89 "Hg

Humidity: 83%

Dew point: 70 °F

Location of KinshasaLocation

Historic Weather in Kinshasa — Graph

°F

Kinshasa temperature yesterday

Maximum temperature yesterday: 91 °F (at 4:00 PM)
Minimum temperature yesterday: 70 °F (at 6:00 AM)
Average temperature yesterday: 79 °F

Past Weeks' High & Low Weather Summary

 TemperatureHumidityPressure
High93 °F (Mar 1, 3:00 PM)100% (Feb 17, 3:00 AM)30.04 "Hg (Feb 17, 3:00 AM)
Low68 °F (Feb 20, 7:58 AM)47% (Mar 1, 3:00 PM)29.74 "Hg (Feb 18, 4:00 PM)
Average78 °F80%29.88 "Hg
* Reported Feb 17 3:00 AM — Mar 4 3:00 AM, Kinshasa, Weather by CustomWeather, © 2015

Note: Actual official high and low records may vary slightly from our data, if they occured in-between our weather recording intervals... More about our weather records

Advertising

Kinshasa weather history for previous 24 hours

 ConditionsComfort  
Time TempWeatherWind HumidityBarometerVisibility
3:00 AM
Wed, Mar 4
73 °FClear.3 mph94%29.89 "Hg10 mi
2:00 AM75 °FPassing clouds.3 mph83%29.89 "HgN/A
1:00 AM77 °FPassing clouds.3 mph79%29.92 "HgN/A
12:00 AM77 °FPassing clouds.5 mph79%29.92 "Hg5 mi
11:00 PM
Tue, Mar 3
77 °FClear.5 mph83%29.92 "Hg5 mi
10:00 PM79 °FClear.7 mph79%29.92 "Hg5 mi
9:00 PM81 °FClear.3 mph74%29.86 "Hg5 mi
8:00 PM82 °FClear.6 mph66%29.83 "Hg6 mi
7:00 PM84 °FPassing clouds.3 mph66%29.80 "Hg5 mi
6:00 PM86 °FPassing clouds.6 mph59%29.80 "Hg6 mi
5:00 PM90 °FScattered clouds.8 mph52%29.77 "HgN/A
4:00 PM91 °FPassing clouds.3 mph52%29.80 "HgN/A
3:00 PM90 °FPassing clouds.8 mph52%29.80 "HgN/A
2:00 PM90 °FPassing clouds.6 mph52%29.83 "HgN/A
1:00 PM86 °FPassing clouds.3 mph62%29.89 "HgN/A
12:00 PM82 °FPassing clouds.3 mph66%29.92 "HgN/A
11:00 AM81 °FPassing clouds.3 mph66%29.95 "HgN/A
10:00 AM79 °FPassing clouds.3 mph70%29.95 "HgN/A
9:00 AM77 °FPassing clouds.6 mph74%29.95 "HgN/A
8:00 AM73 °FPassing clouds.2 mph89%29.95 "HgN/A
7:00 AM72 °FPassing clouds.2 mph88%29.92 "HgN/A
6:00 AM70 °FLight rain. Passing clouds.3 mph94%29.92 "HgN/A
5:00 AM72 °FPassing clouds.2 mph88%29.92 "HgN/A
Weather by CustomWeather, © 2015

See weather overviewHow to use our weather pages